Change the Weather History Date:

Wednesday, October 5, 2011

  Actual Average Record
Temperature  
Mean Temperature 40 °F 55 °F  
Max Temperature 46 °F 72 °F 89 °F (1980)
Min Temperature 34 °F 39 °F 23 °F (1916)
Degree Days  
Heating Degree Days 25 10  
Month to date heating degree days 80 47  
Since 1 July heating degree days 153 284  
Cooling Degree Days 0 0  
Month to date cooling degree days 0 0  
Year to date cooling degree days 293 287  
Moisture  
Dew Point 36 °F    
Average Humidity 91    
Maximum Humidity 92    
Minimum Humidity 82    
Precipitation  
Precipitation 0.27 in 0.03 in 0.80 in (1920)
Month to date precipitation 1.57 0.15  
Year to date precipitation 27.78 28.15  
Sea Level Pressure  
Sea Level Pressure 29.68 in    
Wind  
Wind Speed 0 mph (ENE)    
Max Wind Speed 7 mph    
Max Gust Speed 14 mph    
Visibility 8 miles    
Events Rain    
T = Trace of Precipitation, MM = Missing Value Source: NWS Daily Summary

Daily Weather History Graph

Daily Weather History Graph

Search for Another Location

Airport or City:

Trip Planner

Search our weather history database for the weather conditions in past years. The results will help you decide how hot, cold, wet, or windy it might be!

Date:

Astronomy

Oct. 05, 2011 Rise Set
Actual Time 7:10 AM PDT 6:44 PM PDT
Civil Twilight 6:42 AM PDT 7:12 PM PDT
Nautical Twilight 6:10 AM PDT 7:44 PM PDT
Astronomical Twilight 5:38 AM PDT 8:16 PM PDT
Moon 3:31 PM PDT (10/5) 12:58 AM PDT (10/5)
Length of Visible Light 12h 29m
Length of Day
11h 34m
Waxing Gibbous, 67% of the Moon is Illuminated
Oct 5
Waxing Gibbous
Oct 11
Full
Oct 19
Last Quarter
Oct 26
New
Nov 2
First Quarter

Hourly Weather History & Observations

Time (PDT) Temp. Windchill Dew Point Humidity Pressure Visibility Wind Dir Wind Speed Gust Speed Precip Events Conditions
12:56 AM 39.2 °F 35.9 °F 35.6 °F 87% 29.58 in 4.0 mi Variable 4.6 mph - N/A Rain Rain
1:56 AM 39.0 °F - 37.0 °F 93% 29.62 in 6.0 mi Calm Calm - 0.15 in Rain Rain
2:07 AM 39.2 °F - 37.4 °F 93% 29.58 in 8.0 mi Calm Calm - 0.01 in Rain Light Rain
2:56 AM 37.4 °F - 35.6 °F 93% 29.54 in 10.0 mi Calm Calm - N/A   Mostly Cloudy
3:18 AM 35.6 °F - 35.6 °F 100% 29.56 in 10.0 mi Calm Calm - N/A   Mostly Cloudy
3:28 AM 37.4 °F 34.9 °F 35.6 °F 93% 29.56 in 10.0 mi ENE 3.5 mph - N/A   Mostly Cloudy
3:56 AM 37.0 °F - 35.1 °F 93% 29.60 in 10.0 mi Calm Calm - N/A   Mostly Cloudy
4:04 AM 37.4 °F - 35.6 °F 93% 29.56 in 10.0 mi Calm Calm - N/A   Mostly Cloudy
4:25 AM 37.4 °F 33.8 °F 35.6 °F 93% 29.56 in 8.0 mi Variable 4.6 mph - 0.00 in Rain Light Rain
4:33 AM 37.4 °F 32.8 °F 35.6 °F 93% 29.54 in 5.0 mi ENE 5.8 mph - 0.01 in Rain Light Rain
4:56 AM 37.9 °F - 36.0 °F 93% 29.60 in 10.0 mi Calm Calm - 0.01 in   Overcast
5:56 AM 37.0 °F - 34.0 °F 89% 29.62 in 10.0 mi Calm Calm - N/A   Clear
6:56 AM 35.1 °F - 32.0 °F 89% 29.65 in 10.0 mi Calm Calm - N/A   Mostly Cloudy
7:52 AM 35.6 °F - 33.8 °F 93% 29.61 in 10.0 mi Calm Calm - N/A   Overcast
7:56 AM 35.1 °F 32.2 °F 33.1 °F 92% 29.68 in 10.0 mi ENE 3.5 mph - N/A   Overcast
8:52 AM 37.4 °F - 35.6 °F 93% 29.63 in 1.2 mi Calm Calm - N/A   Scattered Clouds
8:56 AM 37.9 °F - 36.0 °F 93% 29.69 in 0.8 mi Calm Calm - N/A   Mist
9:03 AM 37.4 °F - 37.4 °F 100% 29.63 in 1.8 mi Calm Calm - N/A   Mostly Cloudy
9:05 AM 37.4 °F - 37.4 °F 100% 29.63 in 3.0 mi Calm Calm - N/A   Mostly Cloudy
9:11 AM 37.4 °F - 37.4 °F 100% 29.63 in 1.8 mi Calm Calm - N/A   Overcast
9:19 AM 39.2 °F - 37.4 °F 93% 29.63 in 3.0 mi Calm Calm - N/A   Overcast
9:56 AM 39.0 °F - 37.9 °F 96% 29.70 in 10.0 mi Calm Calm - N/A   Overcast
10:13 AM 39.2 °F - 37.4 °F 93% 29.64 in 10.0 mi Calm Calm - N/A   Overcast
10:38 AM 41.0 °F - 37.4 °F 87% 29.65 in 10.0 mi Calm Calm - N/A   Overcast
10:56 AM 42.1 °F - 37.9 °F 85% 29.71 in 10.0 mi Calm Calm - N/A   Mostly Cloudy
11:56 AM 43.0 °F - 37.0 °F 80% 29.73 in 10.0 mi Calm Calm - N/A   Overcast
12:41 PM 42.8 °F - 37.4 °F 81% 29.68 in 6.0 mi Calm Calm - 0.01 in Rain Light Rain
12:56 PM 42.1 °F - 37.9 °F 85% 29.73 in 10.0 mi Calm Calm - 0.01 in Rain Light Rain
1:10 PM 44.6 °F 43.1 °F 39.2 °F 81% 29.67 in 10.0 mi Variable 3.5 mph - 0.00 in Rain Light Rain
1:56 PM 43.0 °F - 39.0 °F 86% 29.73 in 10.0 mi Calm Calm - 0.00 in Rain Light Rain
2:38 PM 39.2 °F - 37.4 °F 93% 29.70 in 1.8 mi Calm Calm - 0.02 in Rain Heavy Rain
2:45 PM 37.4 °F 32.8 °F 33.8 °F 87% 29.68 in 1.2 mi East 5.8 mph - 0.05 in Rain Heavy Rain
2:48 PM 37.4 °F 32.1 °F 33.8 °F 87% 29.68 in 1.5 mi ENE 6.9 mph - 0.07 in Rain Heavy Rain
2:54 PM 37.4 °F 32.8 °F 33.8 °F 87% 29.68 in 3.0 mi East 5.8 mph - 0.08 in Rain Light Rain
2:56 PM 37.9 °F 35.5 °F 35.1 °F 89% 29.75 in 5.0 mi Variable 3.5 mph - 0.08 in Rain Light Rain
3:08 PM 39.2 °F - 37.4 °F 93% 29.69 in 10.0 mi Calm Calm - 0.00 in   Overcast
3:17 PM 39.2 °F - 37.4 °F 93% 29.68 in 10.0 mi Calm Calm - 0.00 in   Overcast
3:56 PM 41.0 °F - 37.9 °F 89% 29.76 in 10.0 mi Calm Calm - 0.00 in   Mostly Cloudy
4:56 PM 41.0 °F - 37.0 °F 86% 29.75 in 10.0 mi Calm Calm - N/A   Mostly Cloudy
5:56 PM 39.9 °F - 37.0 °F 89% 29.77 in 10.0 mi Calm Calm - N/A   Mostly Cloudy
6:06 PM 39.2 °F - 37.4 °F 93% 29.70 in 10.0 mi Calm Calm - N/A   Mostly Cloudy
6:56 PM 39.0 °F - 36.0 °F 89% 29.80 in 10.0 mi Calm Calm - N/A   Overcast
7:56 PM 39.0 °F - 37.0 °F 93% 29.82 in 10.0 mi Calm Calm - N/A   Overcast
8:48 PM 39.2 °F - 35.6 °F 87% 29.75 in 10.0 mi Calm Calm - N/A   Overcast
8:56 PM 39.0 °F - 36.0 °F 89% 29.83 in 10.0 mi Calm Calm - N/A   Overcast
9:24 PM 39.2 °F - 35.6 °F 87% 29.76 in 10.0 mi Calm Calm - N/A   Overcast
9:56 PM 37.9 °F - 35.1 °F 89% 29.84 in 10.0 mi Calm Calm - N/A   Overcast
10:27 PM 39.2 °F - 35.6 °F 87% 29.77 in 10.0 mi Calm Calm - N/A   Overcast
10:56 PM 37.9 °F - 36.0 °F 93% 29.84 in 10.0 mi Calm Calm - N/A   Overcast
11:30 PM 37.4 °F - 35.6 °F 93% 29.78 in 10.0 mi Calm Calm - N/A   Overcast
11:56 PM 37.9 °F - 35.1 °F 89% 29.85 in 10.0 mi Calm Calm - N/A   Overcast